Погода в Иэме

Погода в Иэме : погода сейчас, прогноз погоды и архив. Всё, что Вы хотите узнать о погоде в Иэме!

Поиск расширенной информации на нашем сайте:

Другие новости

Новости СМИ2

Главная страница сайта

Новости сайта

02.10.2013

Напоминаем, что на нашем новом сайте вы можете получить высокодетализированные прогнозы погоды по пунктам России, СНГ и мира (включающие важные для авиации метеовеличины, такие как направление и скорость ветра, видимость, явления погоды, количество и форма облачности, нижняя и верхняя граница облачности), а также ознакомиться с разнообразными материалами по авиационной метеорологии и подборкой полезных ссылок на эту тему.

Сайт Метеоцентр.Азия посвящён разработке технологий оптимизации авиаметеорологического обслуживания, включая проектирование и перспективное создание нескольких автоматизированных авиаметеорологических систем:
- система выпуска высокодетальных прогностических карт явлений погоды для нижнего воздушного пространства по России и ближнему зарубежью;
- система верификации прогнозов TAF (выпускаемых синоптиками официальных АМСГ РФ и ближнего зарубежья) и AUTOTAF (выпускаемых сайтом Метеоцентр.Азия) - выявление ошибок, онлайн-сопоставление с фактической погодой METAR, автоматическое внесение коррективов в прогнозы при резком отклонении фактической погоды от прогноза, подсчёт оправдываемости прогнозов по элементам и в целом;
- система обработки, анализа и отображения авиаметеорологической информации для применения провайдерами метеорологической информации.


Погода в Иэме - сегодня

Время (UTC), дата Ветер
(°,м/с) 
Видим.   Явления Облачность Т
(°С)
Тd
(°С)
f(%) Тe
(°С)
Pmin
(гПа)
dP
(гПа)
Po
(мм)
O2
(г/м3)
Тmin Tmax R s Состояние
почвы
15 26.05.17 тихо ()   20000 м    6/0 средняя 
[Ac trans]
+1 -1 86 +1  1003  -0.5  692  278           
18 26.05.17 тихо ()   20000 м    3/0 средняя 
[Ac trans]
+1.4 -1.1 83 +1  1001.5  -1.4  691  277           
21 26.05.17 130 (ЮВ) 20000 м    9/0 средняя 
[Ac trans]
+3.6 -0.4 75 +3  992.8  -0.9  690  274  +0.8        влажная 
06 27.05.17 200 (Ю) 20000 м  {снег}  10/0 средняя 
[Ac As]
+5.8 +2.9 82 +5  997.6  0.1  689  271           
12 27.05.17 280 (З) 20000 м    9/0 средняя 
[Ac trans]
+3.3 +1.5 88 +3  1001.8  2.7  692  275           
15 27.05.17 240 (ЮЗ) 20000 м    10/0 средняя 
[Ac As]
+1.7 +1.2 96 +1  1003.6  1.2  693  277           
18 27.05.17 210 (ЮЗ) 20000 м    10/0 средняя 
[Ac As]
+1.1 +0.6 96 +2  1005.4  1.4  694  278           
21 27.05.17 тихо ()   20000 м  слаб. дождь  10/0 средняя 
[As op]
+1.5 +1 96 +2  1006.6  1.3  695  278  +0.6    0.6    влажная 
00 28.05.17 280 (З) 20000 м  {дождь}  10/0 средняя 
[Ac As]
+4.9 +2.7 86 +5  1006.7  1.1  696  275           
03 28.05.17 180 (Ю) 20000 м    10/0 средняя 
[Ac As]
+5.4 +1.1 74 +5  1007.2  0.5  696  275           
06 28.05.17 250 (З) 20000 м    10/0 средняя 
[Ac As]
+8.1 +0.9 60 +9  1006.1  -0.3  696  272           
12 28.05.17 тихо ()   20000 м    4/0 средняя 
[Ac trans]
+5 +0 70 +5  1008.2  0.9  697  276           
15 28.05.17 тихо ()   20000 м    3/0 верхняя 
[Ci fib]
-1.5 -3 89 -2  1010.9  0.3  697  283           
18 28.05.17 тихо ()   20000 м    3/0 верхняя 
[Ci fib]
-0.9 -1.8 94 -1  1011.1  0.3  697  282           
21 28.05.17 тихо ()   20000 м    10/0 верхняя 
[Ci fib]
+2.1 +0.2 87 +2  1009.8  -0.2  697  279  -2.9        влажная 
00 29.05.17 100 (В) 20000 м    9/0 верхняя 
[Cs]
+10.6 +1.6 54 +9  1006.6  -0.7  697  270           
03 29.05.17 110 (В) 20000 м    10/0 средняя 
[Ac As]
+10.2 +1.6 55 +9  1005.7  -0.9  696  270           
06 29.05.17 110 (В) 20000 м    9/0 верхняя 
[Cs]
+11.1 -0.2 46 +11  1004.6  -0.8  695  269           
12 29.05.17 100 (В) 20000 м    10/0 средняя 
[Ac As]
+11 +1.5 52 +11  1004.4  0.3  695  269           
15 29.05.17 180 (Ю) 20000 м    10/0 средняя 
[Ac As]
+7.7 -0.9 54 +6  1006  0.6  696  273           
18 29.05.17 150 (ЮВ) 20000 м    10/0 средняя 
[Ac As]
+5 +3.6 91 +4  1007.3  0.5  696  275           
21 29.05.17 230 (ЮЗ) 20000 м    10/0 средняя 
[Ac As]
+4.6 +2.9 89 +4  1008.4  0.9  697  275  +3.9        влажная 
00 30.05.17 220 (ЮЗ) 20000 м    10/0 средняя 
[Ac As]
+6.1 +3.2 82 +6  1008.3  0.3  697  274           
03 30.05.17 160 (Ю) 20000 м    10/0 средняя 
[Ac As]
+7 +5.4 90 +6  1008.8  0.8  697  273           
06 30.05.17 200 (Ю) 20000 м    10/0 средняя 
[Ac As]
+7.8 +5.1 83 +8  1009.2  0.6  698  272           
Время (UTC), дата Ветер
(°,м/с) 
Видим.   Явления Облачность Т
(°С)
Тd
(°С)
f(%) Тe
(°С)
Pmin
(гПа)
dP
(гПа)
Po
(мм)
O2
(г/м3)
Тmin Tmax R s Состояние
почвы

Для получения пояснительной информации подведите курсор к названию столбца.

ПОГОДА в Иэме - архив

Всё, что Вы хотите узнать о погоде в Иэме - удобно и подробно!

Выберите нужную дату (начиная с 1 января 2015* года) и нажмите кнопку "Найти".
Будут отображены архивные сводки погоды по пункту Иэма, начиная с указанной даты.


Отображать данные в формате CSV (для использования в таблицах Excel)


Внимание! Наш архив погоды предназначен исключительно для личного некоммерческого использования в познавательных целях. Если Вам необходимы официальные справки о состоянии погоды (для производственных, юридических, коммерческих и т.п. целей), обращайтесь в органы Росгидромета.

*Примечание: данная дата относится к архиву по метеостанциям СССР (Россия, СНГ, Балтия).
Архив по метеостанциям Зарубежной Европы и Азии (кроме Китая) хранится 10 дней, по другим регионам земного шара (Китай, Африка, Америка, Австралия, Океания) - 1 день.

Иэма - район местоположения метеостанции


Название, широта, долгота, высота метеостанции:
Иэма 65.2°ш. 135.9°д. 676 м над ур. моря [Российская Федерация]

Дополнительная информация

В oтличие oт бoльшинства пoгoдных сайтoв мы публикуем пoдрoбную метеoинфoрмацию в детальнoм прoфессиoнальнoм фoрмате.

Характеристики температуры и влажнoсти вoздуха измеряются на высoте 2 м в тени вдали oт зданий и деревьев.
Скoрoсть ветра измеряется на высoте 10 м (на урoвне рoста челoвека скoрoсть ветра ниже в 1.5-2 раза). Если метеoстанция нахoдится в гoрoде или в лесу, тo скoрoсть ветра занижена на 2-4 м/с пo сравнению с oткрытым местoм. Скoрoсть ветра над акватoриями крупных рек и oзёр, а также на вершинах хoлмoв на 2-5 м/с выше, чем в oбычных услoвиях.
Атмoсфернoе давление в разных тoчках местнoсти мoжет значительнo oтличаться oт давления на метеoстанции, в зависимoсти oт услoвий рельефа (при пoдъёме на 10 м давление пoнижается примернo на 1 мм рт.ст.).